User: anonymous   Login
Location: Hradec Kralove
(50.2170°N, 15.8330°E)
Time: 05:42:46
(UTC+01:00)
Language:

YUBILEINY - Orbit

View from above orbital plane
View from above orbital plane
View from above satellite
View from above satellite

Ground track
Ground track

The orbit data is extracted from the following two-line orbital elements,

1 32953U 08025A   24057.76683871  .00000062  00000-0  37353-3 0  9993
2 32953  82.5067 158.7835 0018598 351.0939   8.9808 12.43136242715284
Epoch (UTC): 26 February 2024 18:24:14
Eccentricity: 0.0018598
inclination: 82.5067°
perigee height: 1478 km
apogee height: 1508 km
right ascension of ascending node: 158.7835°
argument of perigee: 351.0939°
revolutions per day: 12.43136242
mean anomaly at epoch: 8.9808°
orbit number at epoch: 71528

The dashed part of the orbit path shows where the satellite is in the earth's shadow,  

DLR